Flag for Greenland Weather past 2 weeks in Nuuk, Greenland

18 °F

Partly cloudy.

Feels Like: 6 °F
Forecast: 17 / 20 °F
Wind: 9 mph from Southwest

Location: Godthaab / Nuuk

Current Time: Nov 26, 2015 at 7:51:47 AM

Latest Report: Nov 26, 2015 at 6:50 AM

Visibility: N/A

Pressure: 29.86 "Hg

Humidity: 79%

Dew point: 12 °F

Location of NuukLocation

Historic Weather in Nuuk — Graph


Nuuk temperature yesterday

Maximum temperature yesterday: 27 °F (at 12:50 AM)
Minimum temperature yesterday: 18 °F (at 9:50 PM)
Average temperature yesterday: 22 °F

Past Weeks' High & Low Weather Summary

High37 °F (Nov 20, 3:50 PM)100% (Nov 14, 9:50 PM)30.42 "Hg (Nov 14, 9:50 PM)
Low9 °F (Nov 18, 6:50 PM)42% (Nov 19, 2:50 AM)29.36 "Hg (Nov 25, 12:50 AM)
Average22 °F79%29.87 "Hg
* Reported Nov 11 6:50 AM — Nov 26 6:50 AM, Nuuk, Weather by CustomWeather, © 2015

Note: Actual official high and low records may vary slightly from our data, if they occured in-between our weather recording intervals... More about our weather records


Nuuk weather history for previous 24 hours

Time TempWeatherWind HumidityBarometerVisibility
6:50 AM
Thu, Nov 26
18 °FPartly cloudy.9 mph79%29.86 "HgN/A
5:50 AM16 °FSnow. Passing clouds.5 mph100%29.86 "Hg1 mi
4:50 AM16 °FPassing clouds.2 mph79%29.86 "HgN/A
3:50 AM16 °FPassing clouds.5 mph67%29.83 "HgN/A
2:50 AM16 °FPartly cloudy.9 mph73%29.83 "HgN/A
1:50 AM18 °FPartly cloudy.No wind73%29.83 "HgN/A
12:50 AM18 °FLight freezing rain. Passing clouds.5 mph93%29.83 "HgN/A
11:50 PM
Wed, Nov 25
18 °FLight snow. Passing clouds.14 mph93%29.80 "Hg2 mi
10:50 PM18 °FLight snow. Partly cloudy.15 mph93%29.80 "Hg1 mi
9:50 PM18 °FLight freezing rain. Mostly cloudy.16 mph86%29.77 "Hg5 mi
8:50 PM19 °FOvercast.No wind79%29.77 "HgN/A
6:50 PM19 °FLight snow. Partly cloudy.14 mph79%29.71 "HgN/A
5:50 PM21 °FSnow flurries. Overcast.10 mph80%29.71 "Hg5 mi
4:50 PM19 °FSnow flurries. Mostly cloudy.12 mph93%29.68 "Hg2 mi
3:50 PM21 °FSnow showers. Ice fog.7 mph100%29.65 "Hg1 mi
2:50 PM21 °FLight mixture of precip. Partly sunny.15 mph93%29.62 "HgN/A
1:50 PM21 °FOvercast.18 mph86%29.59 "HgN/A
12:50 PM21 °FLight mixture of precip. Partly sunny.23 mph93%29.56 "HgN/A
11:50 AM23 °FLight mixture of precip. Partly sunny.22 mph93%29.53 "Hg4 mi
10:50 AM23 °FLight mixture of precip. Partly sunny.10 mph100%29.50 "Hg4 mi
9:50 AM23 °FSnow flurries. Partly sunny.6 mph100%29.47 "Hg5 mi
8:50 AM25 °FLight mixture of precip. Partly cloudy.10 mph80%29.47 "HgN/A
7:50 AM25 °FPassing clouds.16 mph80%29.45 "HgN/A
Weather by CustomWeather, © 2015

See weather overviewHow to use our weather pages